PROGRESS-MS 02

Last updated on Fri Oct 14 2016 17:17:13 GMT+0000 (Coordinated Universal Time)

1 41436U 16022A 16287.38091704 .00009256 00000-0 14656-3 0 9992 2 41436 51.6442 188.5032 0006981 67.5738 42.8976 15.54181201 30466

Satellite not in orbit

PROGRESS-MS 02